| time (UTC) | temp F | wind direction | speed MPH | gust MPH | rain 1hr in | rain 24hr in | rain mn in | humidity % | barometer mb |
| 20260902031304 | 84 | 305 | 4.0 | 9.0 | 0.00 | 0.00 | 0.00 | 72 | 1013.2 |
| 20260902030804 | 84 | 352 | 2.0 | 6.0 | 0.00 | 0.00 | 0.00 | 72 | 1013.2 |
| 20260902030304 | 84 | 347 | 2.0 | 5.0 | 0.00 | 0.00 | 0.00 | 71 | 1013.1 |
| 20260902025804 | 84 | 317 | 3.0 | 8.0 | 0.00 | 0.00 | 0.00 | 71 | 1013.0 |
| 20260902025306 | 84 | 310 | 4.0 | 7.0 | 0.00 | 0.00 | 0.00 | 71 | 1012.9 |
| 20260902024804 | 84 | 307 | 5.0 | 9.0 | 0.00 | 0.00 | 0.00 | 71 | 1012.7 |
| 20260902024304 | 85 | 306 | 5.0 | 12.0 | 0.00 | 0.00 | 0.00 | 70 | 1012.6 |
| 20260902023804 | 85 | 309 | 5.0 | 8.0 | 0.00 | 0.00 | 0.00 | 70 | 1012.6 |
| 20260902023304 | 85 | 304 | 3.0 | 8.0 | 0.00 | 0.00 | 0.00 | 70 | 1012.5 |
| 20260902022804 | 85 | 295 | 5.0 | 9.0 | 0.00 | 0.00 | 0.00 | 70 | 1012.4 |
| 20260902022306 | 85 | 298 | 5.0 | 12.0 | 0.00 | 0.00 | 0.00 | 70 | 1012.5 |
| 20260902021805 | 85 | 299 | 6.0 | 10.0 | 0.00 | 0.00 | 0.00 | 69 | 1012.6 |
| 20260902021304 | 85 | 311 | 5.0 | 12.0 | 0.00 | 0.00 | 0.00 | 69 | 1012.6 |
| 20260902020804 | 86 | 303 | 6.0 | 10.0 | 0.00 | 0.00 | 0.00 | 69 | 1012.6 |
| 20260902020304 | 86 | 297 | 5.0 | 13.0 | 0.00 | 0.00 | 0.00 | 69 | 1012.6 |
| 20260902015306 | 86 | 298 | 7.0 | 13.0 | 0.00 | 0.00 | 0.00 | 68 | 1012.6 |
| 20260902014805 | 86 | 301 | 5.0 | 14.0 | 0.00 | 0.00 | 0.00 | 68 | 1012.6 |
| 20260902014304 | 86 | 311 | 8.0 | 12.0 | 0.00 | 0.00 | 0.00 | 68 | 1012.6 |
| 20260902013804 | 87 | 297 | 7.0 | 13.0 | 0.00 | 0.00 | 0.00 | 68 | 1012.5 |
| 20260902013304 | 87 | 307 | 5.0 | 9.0 | 0.00 | 0.00 | 0.00 | 67 | 1012.5 |
| 20260902012309 | 87 | 290 | 5.0 | 10.0 | 0.00 | 0.00 | 0.00 | 67 | 1012.3 |
| 20260902010804 | 88 | 295 | 5.0 | 12.0 | 0.00 | 0.00 | 0.00 | 66 | 1012.3 |
| 20260902010304 | 88 | 288 | 4.0 | 7.0 | 0.00 | 0.00 | 0.00 | 66 | 1012.2 |
| 20260902005804 | 88 | 313 | 4.0 | 7.0 | 0.00 | 0.00 | 0.00 | 65 | 1012.2 |
| 20260902005306 | 88 | 291 | 5.0 | 8.0 | 0.00 | 0.00 | 0.00 | 65 | 1012.2 |
| 20260902004805 | 88 | 294 | 4.0 | 9.0 | 0.00 | 0.00 | 0.00 | 65 | 1012.2 |
| 20260902004303 | 88 | 294 | 2.0 | 6.0 | 0.00 | 0.00 | 0.00 | 65 | 1012.0 |
| 20260902003805 | 88 | 247 | 3.0 | 8.0 | 0.00 | 0.00 | 0.00 | 65 | 1011.9 |
| 20260902003304 | 89 | 280 | 4.0 | 9.0 | 0.00 | 0.00 | 0.00 | 65 | 1011.8 |
| 20260902002306 | 89 | 256 | 1.0 | 3.0 | 0.00 | 0.00 | 0.00 | 65 | 1011.7 |
| 20260902001304 | 89 | 258 | 2.0 | 6.0 | 0.00 | 0.00 | 0.00 | 64 | 1011.2 |
| 20260902000804 | 89 | 278 | 0.0 | 3.0 | 0.00 | 0.00 | 0.00 | 64 | 1011.1 |
| 20260902000305 | 89 | 247 | 1.0 | 3.0 | 0.00 | 0.00 | 0.00 | 64 | 1011.1 |
| 20260901235804 | 90 | 205 | 0.0 | 3.0 | 0.00 | 0.00 | 0.00 | 64 | 1011.1 |
| 20260901235307 | 90 | 231 | 1.0 | 5.0 | 0.00 | 0.00 | 0.00 | 63 | 1011.1 |
| 20260901234304 | 90 | 234 | 1.0 | 3.0 | 0.00 | 0.00 | 0.00 | 63 | 1011.2 |
| 20260901233805 | 90 | 229 | 0.0 | 3.0 | 0.00 | 0.00 | 0.00 | 62 | 1011.2 |
| 20260901233305 | 91 | 229 | 1.0 | 3.0 | 0.00 | 0.00 | 0.00 | 62 | 1011.3 |
| 20260901232804 | 91 | 252 | 2.0 | 3.0 | 0.00 | 0.00 | 0.00 | 62 | 1011.2 |
| 20260901231804 | 91 | 223 | 1.0 | 5.0 | 0.00 | 0.00 | 0.00 | 61 | 1011.3 |
| 20260901231304 | 91 | 241 | 2.0 | 5.0 | 0.00 | 0.00 | 0.00 | 61 | 1011.3 |
| 20260901230804 | 91 | 233 | 2.0 | 5.0 | 0.00 | 0.00 | 0.00 | 60 | 1011.4 |
| 20260901230304 | 92 | 222 | 3.0 | 5.0 | 0.00 | 0.00 | 0.00 | 60 | 1011.3 |
| 20260901225804 | 92 | 213 | 2.0 | 6.0 | 0.00 | 0.00 | 0.00 | 60 | 1011.4 |
| 20260901225306 | 92 | 230 | 2.0 | 3.0 | 0.00 | 0.00 | 0.00 | 59 | 1011.4 |
| 20260901224804 | 92 | 248 | 2.0 | 6.0 | 0.00 | 0.00 | 0.00 | 59 | 1011.4 |
| 20260901224304 | 92 | 250 | 1.0 | 6.0 | 0.00 | 0.00 | 0.00 | 58 | 1011.4 |
| 20260901223804 | 93 | 267 | 1.0 | 9.0 | 0.00 | 0.00 | 0.00 | 58 | 1011.5 |
| 20260901222804 | 93 | 233 | 1.0 | 3.0 | 0.00 | 0.00 | 0.00 | 57 | 1011.5 |
| 20260901222306 | 93 | 216 | 2.0 | 3.0 | 0.00 | 0.00 | 0.00 | 57 | 1011.5 |
| 20260901221805 | 94 | 259 | 3.0 | 8.0 | 0.00 | 0.00 | 0.00 | 56 | 1011.5 |
| 20260901221305 | 94 | 223 | 5.0 | 12.0 | 0.00 | 0.00 | 0.00 | 56 | 1011.5 |
| 20260901220804 | 94 | 242 | 4.0 | 12.0 | 0.00 | 0.00 | 0.00 | 56 | 1011.6 |
| 20260901220304 | 95 | 246 | 3.0 | 9.0 | 0.00 | 0.00 | 0.00 | 55 | 1011.6 |
| 20260901215804 | 95 | 274 | 7.0 | 12.0 | 0.00 | 0.00 | 0.00 | 55 | 1011.7 |
| 20260901215306 | 95 | 258 | 2.0 | 7.0 | 0.00 | 0.00 | 0.00 | 55 | 1011.7 |
| 20260901214804 | 95 | 240 | 4.0 | 9.0 | 0.00 | 0.00 | 0.00 | 54 | 1011.6 |
| 20260901214304 | 96 | 253 | 2.0 | 8.0 | 0.00 | 0.00 | 0.00 | 54 | 1011.6 |
| 20260901213804 | 96 | 242 | 5.0 | 12.0 | 0.00 | 0.00 | 0.00 | 53 | 1011.5 |
| 20260901212804 | 96 | 221 | 3.0 | 9.0 | 0.00 | 0.00 | 0.00 | 54 | 1011.7 |
| 20260901212306 | 96 | 186 | 5.0 | 10.0 | 0.00 | 0.00 | 0.00 | 53 | 1011.7 |
| 20260901211804 | 96 | 269 | 3.0 | 7.0 | 0.00 | 0.00 | 0.00 | 53 | 1011.8 |
| 20260901210804 | 96 | 249 | 3.0 | 10.0 | 0.00 | 0.00 | 0.00 | 53 | 1011.9 |
| 20260901210304 | 96 | 218 | 2.0 | 8.0 | 0.00 | 0.00 | 0.00 | 53 | 1011.9 |
| 20260901205804 | 96 | 229 | 2.0 | 9.0 | 0.00 | 0.00 | 0.00 | 53 | 1011.9 |
| 20260901205306 | 96 | 281 | 3.0 | 9.0 | 0.00 | 0.00 | 0.00 | 53 | 1011.9 |
| 20260901204805 | 96 | 281 | 3.0 | 10.0 | 0.00 | 0.00 | 0.00 | 54 | 1011.8 |
| 20260901204305 | 96 | 314 | 2.0 | 6.0 | 0.00 | 0.00 | 0.00 | 53 | 1011.9 |
| 20260901203805 | 96 | 255 | 4.0 | 10.0 | 0.00 | 0.00 | 0.00 | 53 | 1012.0 |
| 20260901203304 | 96 | 217 | 2.0 | 6.0 | 0.00 | 0.00 | 0.00 | 53 | 1012.0 |
| 20260901202804 | 96 | 301 | 4.0 | 8.0 | 0.00 | 0.00 | 0.00 | 54 | 1012.1 |
| 20260901202306 | 96 | 279 | 2.0 | 6.0 | 0.00 | 0.00 | 0.00 | 53 | 1012.1 |
| 20260901201304 | 96 | 278 | 6.0 | 10.0 | 0.00 | 0.00 | 0.00 | 52 | 1012.3 |
| 20260901200804 | 97 | 263 | 4.0 | 9.0 | 0.00 | 0.00 | 0.00 | 53 | 1012.2 |
| 20260901200304 | 97 | 348 | 4.0 | 8.0 | 0.00 | 0.00 | 0.00 | 52 | 1012.2 |
| 20260901195804 | 97 | 195 | 3.0 | 9.0 | 0.00 | 0.00 | 0.00 | 52 | 1012.3 |
| 20260901195306 | 97 | 282 | 2.0 | 6.0 | 0.00 | 0.00 | 0.00 | 52 | 1012.4 |
| 20260901194805 | 97 | 303 | 3.0 | 9.0 | 0.00 | 0.00 | 0.00 | 52 | 1012.5 |
| 20260901194305 | 97 | 221 | 1.0 | 6.0 | 0.00 | 0.00 | 0.00 | 54 | 1012.5 |
| 20260901193304 | 97 | 275 | 2.0 | 7.0 | 0.00 | 0.00 | 0.00 | 53 | 1012.6 |
| 20260901192306 | 96 | 292 | 3.0 | 8.0 | 0.00 | 0.00 | 0.00 | 54 | 1012.7 |
| 20260901191804 | 96 | 293 | 7.0 | 13.0 | 0.00 | 0.00 | 0.00 | 54 | 1012.8 |
| 20260901191304 | 96 | 291 | 6.0 | 12.0 | 0.00 | 0.00 | 0.00 | 53 | 1012.9 |
| 20260901190804 | 97 | 313 | 6.0 | 12.0 | 0.00 | 0.00 | 0.00 | 53 | 1012.9 |
| 20260901190305 | 98 | 282 | 5.0 | 12.0 | 0.00 | 0.00 | 0.00 | 51 | 1013.0 |
| 20260901185805 | 97 | 284 | 2.0 | 10.0 | 0.00 | 0.00 | 0.00 | 56 | 1013.0 |
| 20260901184805 | 97 | 298 | 7.0 | 12.0 | 0.00 | 0.00 | 0.00 | 54 | 1013.2 |
| 20260901184304 | 96 | 256 | 6.0 | 10.0 | 0.00 | 0.00 | 0.00 | 56 | 1013.2 |
| 20260901183804 | 96 | 318 | 6.0 | 12.0 | 0.00 | 0.00 | 0.00 | 56 | 1013.2 |
| 20260901183304 | 95 | 326 | 6.0 | 12.0 | 0.00 | 0.00 | 0.00 | 56 | 1013.2 |
| 20260901182804 | 95 | 215 | 2.0 | 8.0 | 0.00 | 0.00 | 0.00 | 57 | 1013.0 |
| 20260901182305 | 95 | 289 | 5.0 | 12.0 | 0.00 | 0.00 | 0.00 | 59 | 1013.1 |
| 20260901181804 | 95 | 231 | 3.0 | 12.0 | 0.00 | 0.00 | 0.00 | 57 | 1013.1 |
| 20260901181304 | 95 | 248 | 3.0 | 12.0 | 0.00 | 0.00 | 0.00 | 59 | 1013.2 |
| 20260901180804 | 95 | 276 | 4.0 | 10.0 | 0.00 | 0.00 | 0.00 | 59 | 1013.1 |
| 20260901180304 | 94 | 282 | 4.0 | 12.0 | 0.00 | 0.00 | 0.00 | 59 | 1013.1 |
| 20260901175804 | 94 | 276 | 6.0 | 13.0 | 0.00 | 0.00 | 0.00 | 59 | 1013.2 |
| 20260901175305 | 94 | 295 | 4.0 | 10.0 | 0.00 | 0.00 | 0.00 | 59 | 1013.2 |
| 20260901174804 | 93 | 271 | 3.0 | 8.0 | 0.00 | 0.00 | 0.00 | 61 | 1013.3 |
| 20260901174304 | 93 | 301 | 4.0 | 10.0 | 0.00 | 0.00 | 0.00 | 62 | 1013.3 |
| 20260901173804 | 92 | 290 | 5.0 | 13.0 | 0.00 | 0.00 | 0.00 | 62 | 1013.3 |
| 20260901173304 | 92 | 307 | 2.0 | 9.0 | 0.00 | 0.00 | 0.00 | 63 | 1013.3 |
| 20260901172305 | 91 | 318 | 3.0 | 9.0 | 0.00 | 0.00 | 0.00 | 66 | 1013.3 |
| 20260901171804 | 91 | 312 | 6.0 | 10.0 | 0.00 | 0.00 | 0.00 | 66 | 1013.3 |
| 20260901171305 | 90 | 233 | 3.0 | 10.0 | 0.00 | 0.00 | 0.00 | 65 | 1013.4 |
| 20260901170304 | 90 | 302 | 5.0 | 8.0 | 0.00 | 0.00 | 0.00 | 67 | 1013.3 |
| 20260901165306 | 90 | 285 | 4.0 | 8.0 | 0.00 | 0.00 | 0.00 | 66 | 1013.6 |
| 20260901164304 | 90 | 290 | 7.0 | 12.0 | 0.00 | 0.00 | 0.00 | 65 | 1013.8 |
| 20260901163805 | 90 | 308 | 5.0 | 10.0 | 0.00 | 0.00 | 0.00 | 65 | 1013.8 |
| 20260901162804 | 90 | 280 | 3.0 | 8.0 | 0.00 | 0.00 | 0.00 | 64 | 1013.9 |
| 20260901161304 | 91 | 282 | 5.0 | 10.0 | 0.00 | 0.00 | 0.00 | 62 | 1013.9 |
| 20260901160804 | 91 | 314 | 5.0 | 9.0 | 0.00 | 0.00 | 0.00 | 62 | 1014.0 |
| 20260901155306 | 92 | 311 | 9.0 | 12.0 | 0.00 | 0.00 | 0.00 | 61 | 1014.2 |
| 20260901154804 | 92 | 300 | 6.0 | 15.0 | 0.00 | 0.00 | 0.00 | 61 | 1014.1 |
| 20260901154305 | 92 | 310 | 6.0 | 12.0 | 0.00 | 0.00 | 0.00 | 63 | 1014.2 |
| 20260901153804 | 92 | 321 | 3.0 | 10.0 | 0.00 | 0.00 | 0.00 | 62 | 1014.3 |
| 20260901153304 | 91 | 290 | 4.0 | 12.0 | 0.00 | 0.00 | 0.00 | 64 | 1014.3 |
| 20260901152804 | 91 | 254 | 4.0 | 10.0 | 0.00 | 0.00 | 0.00 | 64 | 1014.4 |
| 20260901152306 | 91 | 293 | 6.0 | 9.0 | 0.00 | 0.00 | 0.00 | 64 | 1014.4 |
| 20260901151804 | 91 | 281 | 6.0 | 10.0 | 0.00 | 0.00 | 0.00 | 65 | 1014.5 |
| 20260901151304 | 91 | 305 | 7.0 | 12.0 | 0.00 | 0.00 | 0.00 | 63 | 1014.5 |
| 20260901150304 | 90 | 313 | 7.0 | 15.0 | 0.00 | 0.00 | 0.00 | 64 | 1014.5 |
| 20260901145306 | 90 | 282 | 9.0 | 14.0 | 0.00 | 0.00 | 0.00 | 66 | 1014.5 |
| 20260901144804 | 90 | 292 | 6.0 | 12.0 | 0.00 | 0.00 | 0.00 | 65 | 1014.4 |
| 20260901144304 | 89 | 304 | 5.0 | 10.0 | 0.00 | 0.00 | 0.00 | 66 | 1014.5 |
| 20260901143804 | 89 | 288 | 3.0 | 9.0 | 0.00 | 0.00 | 0.00 | 67 | 1014.6 |
| 20260901143304 | 89 | 299 | 5.0 | 10.0 | 0.00 | 0.00 | 0.00 | 67 | 1014.6 |
| 20260901141804 | 87 | 291 | 2.0 | 7.0 | 0.00 | 0.00 | 0.00 | 73 | 1014.6 |
| 20260901141305 | 86 | 268 | 3.0 | 8.0 | 0.00 | 0.00 | 0.00 | 73 | 1014.6 |
| 20260901140804 | 86 | 269 | 2.0 | 6.0 | 0.00 | 0.00 | 0.00 | 73 | 1014.6 |
| 20260901135804 | 85 | 303 | 2.0 | 7.0 | 0.00 | 0.00 | 0.00 | 73 | 1014.6 |
| 20260901135305 | 86 | 282 | 4.0 | 12.0 | 0.00 | 0.00 | 0.00 | 72 | 1014.6 |
| 20260901134804 | 86 | 249 | 3.0 | 8.0 | 0.00 | 0.00 | 0.00 | 72 | 1014.6 |
| 20260901133804 | 86 | 268 | 5.0 | 9.0 | 0.00 | 0.00 | 0.00 | 72 | 1014.4 |
| 20260901133304 | 86 | 249 | 2.0 | 8.0 | 0.00 | 0.00 | 0.00 | 73 | 1014.4 |
| 20260901131304 | 84 | 279 | 4.0 | 9.0 | 0.00 | 0.00 | 0.00 | 75 | 1014.7 |
| 20260901130804 | 84 | 300 | 1.0 | 8.0 | 0.00 | 0.00 | 0.00 | 77 | 1014.7 |
| 20260901130304 | 83 | 269 | 3.0 | 10.0 | 0.00 | 0.00 | 0.00 | 78 | 1014.7 |
| 20260901125804 | 83 | 334 | 2.0 | 9.0 | 0.00 | 0.00 | 0.00 | 79 | 1014.6 |
| 20260901125308 | 82 | 280 | 2.0 | 12.0 | 0.00 | 0.00 | 0.00 | 80 | 1014.8 |
| 20260901124804 | 82 | 266 | 4.0 | 10.0 | 0.00 | 0.00 | 0.00 | 82 | 1014.9 |
| 20260901124304 | 82 | 302 | 3.0 | 7.0 | 0.00 | 0.00 | 0.00 | 83 | 1015.1 |
| 20260901123804 | 81 | 265 | 3.0 | 9.0 | 0.00 | 0.00 | 0.00 | 84 | 1015.1 |
| 20260901123304 | 80 | 289 | 2.0 | 7.0 | 0.00 | 0.00 | 0.00 | 86 | 1015.2 |
| 20260901122306 | 80 | 302 | 2.0 | 7.0 | 0.00 | 0.00 | 0.00 | 86 | 1015.2 |
| 20260901121804 | 79 | 287 | 1.0 | 9.0 | 0.00 | 0.00 | 0.00 | 87 | 1015.1 |
| 20260901121304 | 79 | 294 | 3.0 | 9.0 | 0.00 | 0.00 | 0.00 | 87 | 1015.0 |
| 20260901120804 | 79 | 273 | 4.0 | 8.0 | 0.00 | 0.00 | 0.00 | 88 | 1015.0 |
| 20260901120304 | 78 | 280 | 2.0 | 7.0 | 0.00 | 0.00 | 0.00 | 89 | 1014.8 |
| 20260901115804 | 78 | 282 | 3.0 | 6.0 | 0.00 | 0.00 | 0.00 | 89 | 1014.7 |
| 20260901115306 | 78 | 293 | 2.0 | 8.0 | 0.00 | 0.00 | 0.00 | 90 | 1014.7 |
| 20260901114804 | 77 | 274 | 3.0 | 3.0 | 0.00 | 0.00 | 0.00 | 90 | 1014.7 |
| 20260901114304 | 77 | 289 | 2.0 | 3.0 | 0.00 | 0.00 | 0.00 | 91 | 1014.7 |
| 20260901113804 | 77 | 252 | 2.0 | 3.0 | 0.00 | 0.00 | 0.00 | 91 | 1014.6 |
| 20260901113304 | 77 | 259 | 2.0 | 5.0 | 0.00 | 0.00 | 0.00 | 91 | 1014.6 |
| 20260901112804 | 77 | 256 | 2.0 | 3.0 | 0.00 | 0.00 | 0.00 | 91 | 1014.6 |
| 20260901112306 | 77 | 249 | 3.0 | 7.0 | 0.00 | 0.00 | 0.00 | 91 | 1014.6 |
| 20260901111304 | 76 | 274 | 3.0 | 6.0 | 0.00 | 0.00 | 0.00 | 91 | 1014.7 |
| 20260901110304 | 76 | 279 | 3.0 | 6.0 | 0.00 | 0.00 | 0.00 | 91 | 1014.7 |
| 20260901105804 | 76 | 285 | 3.0 | 7.0 | 0.00 | 0.00 | 0.00 | 91 | 1014.7 |
| 20260901105305 | 76 | 291 | 1.0 | 7.0 | 0.00 | 0.00 | 0.00 | 91 | 1014.8 |
| 20260901104804 | 76 | 289 | 2.0 | 6.0 | 0.00 | 0.00 | 0.00 | 91 | 1014.7 |
| 20260901104304 | 76 | 284 | 1.0 | 3.0 | 0.00 | 0.00 | 0.00 | 91 | 1014.6 |
| 20260901103804 | 76 | 281 | 2.0 | 3.0 | 0.00 | 0.00 | 0.00 | 91 | 1014.6 |
| 20260901103304 | 76 | 263 | 1.0 | 3.0 | 0.00 | 0.00 | 0.00 | 91 | 1014.5 |
| 20260901101803 | 76 | 278 | 1.0 | 3.0 | 0.00 | 0.00 | 0.00 | 91 | 1014.5 |
| 20260901101304 | 77 | 278 | 0.0 | 3.0 | 0.00 | 0.00 | 0.00 | 91 | 1014.6 |
| 20260901100804 | 77 | 278 | 0.0 | 2.0 | 0.00 | 0.00 | 0.00 | 91 | 1014.6 |
| 20260901100304 | 77 | 278 | 1.0 | 3.0 | 0.00 | 0.00 | 0.00 | 91 | 1014.6 |
| 20260901095805 | 77 | 276 | 0.0 | 1.0 | 0.00 | 0.00 | 0.00 | 91 | 1014.5 |
| 20260901094804 | 77 | 276 | 0.0 | 3.0 | 0.00 | 0.00 | 0.00 | 91 | 1014.4 |
| 20260901094304 | 77 | 259 | 1.0 | 3.0 | 0.00 | 0.00 | 0.00 | 91 | 1014.4 |
| 20260901093804 | 77 | 259 | 2.0 | 3.0 | 0.00 | 0.00 | 0.00 | 92 | 1014.5 |
| 20260901093304 | 77 | 259 | 1.0 | 3.0 | 0.00 | 0.00 | 0.00 | 92 | 1014.4 |
| 20260901092804 | 77 | 198 | 1.0 | 3.0 | 0.00 | 0.00 | 0.00 | 92 | 1014.3 |
| 20260901092305 | 76 | 256 | 2.0 | 6.0 | 0.00 | 0.00 | 0.00 | 92 | 1014.4 |
| 20260901091804 | 76 | 244 | 1.0 | 5.0 | 0.00 | 0.00 | 0.00 | 92 | 1014.6 |
| 20260901091304 | 76 | 288 | 2.0 | 3.0 | 0.00 | 0.00 | 0.00 | 92 | 1014.7 |
| 20260901090804 | 76 | 260 | 3.0 | 6.0 | 0.00 | 0.00 | 0.00 | 92 | 1014.7 |
| 20260901090304 | 76 | 278 | 2.0 | 5.0 | 0.00 | 0.00 | 0.00 | 92 | 1014.7 |
| 20260901085804 | 76 | 275 | 2.0 | 3.0 | 0.00 | 0.00 | 0.00 | 92 | 1014.7 |
| 20260901085306 | 76 | 254 | 2.0 | 3.0 | 0.00 | 0.00 | 0.00 | 92 | 1014.7 |
| 20260901084804 | 76 | 263 | 2.0 | 6.0 | 0.00 | 0.00 | 0.00 | 92 | 1014.7 |
| 20260901084304 | 76 | 277 | 1.0 | 3.0 | 0.00 | 0.00 | 0.00 | 92 | 1014.7 |
| 20260901083804 | 76 | 270 | 1.0 | 3.0 | 0.00 | 0.00 | 0.00 | 92 | 1014.8 |
| 20260901083305 | 76 | 231 | 1.0 | 2.0 | 0.00 | 0.00 | 0.00 | 92 | 1014.7 |
| 20260901082804 | 76 | 231 | 0.0 | 3.0 | 0.00 | 0.00 | 0.00 | 91 | 1014.6 |
| 20260901081804 | 76 | 231 | 0.0 | 2.0 | 0.00 | 0.00 | 0.00 | 91 | 1014.5 |
| 20260901080804 | 76 | 231 | 0.0 | 1.0 | 0.00 | 0.00 | 0.00 | 91 | 1014.6 |
| 20260901080303 | 76 | 231 | 0.0 | 2.0 | 0.00 | 0.00 | 0.00 | 91 | 1014.6 |
| 20260901075804 | 76 | 231 | 1.0 | 2.0 | 0.00 | 0.00 | 0.00 | 91 | 1014.7 |
| 20260901075307 | 76 | 231 | 1.0 | 3.0 | 0.00 | 0.00 | 0.00 | 91 | 1014.6 |
| 20260901074804 | 76 | 231 | 1.0 | 3.0 | 0.00 | 0.00 | 0.00 | 91 | 1014.5 |
| 20260901074304 | 76 | 231 | 1.0 | 3.0 | 0.00 | 0.00 | 0.00 | 90 | 1014.6 |
| 20260901073804 | 76 | 231 | 1.0 | 3.0 | 0.00 | 0.00 | 0.00 | 90 | 1014.6 |
| 20260901073304 | 76 | 231 | 1.0 | 3.0 | 0.00 | 0.00 | 0.00 | 90 | 1014.7 |
| 20260901072804 | 76 | 231 | 1.0 | 3.0 | 0.00 | 0.00 | 0.00 | 90 | 1014.8 |
| 20260901072308 | 76 | 231 | 1.0 | 3.0 | 0.00 | 0.00 | 0.00 | 90 | 1014.9 |
| 20260901071303 | 76 | 235 | 2.0 | 3.0 | 0.00 | 0.00 | 0.00 | 90 | 1014.9 |
| 20260901070804 | 76 | 235 | 2.0 | 3.0 | 0.00 | 0.00 | 0.00 | 89 | 1014.9 |
| 20260901070304 | 76 | 240 | 2.0 | 3.0 | 0.00 | 0.00 | 0.00 | 89 | 1015.0 |
| 20260901065305 | 76 | 239 | 0.0 | 3.0 | 0.00 | 0.00 | 0.00 | 89 | 1015.1 |
| 20260901064805 | 76 | 239 | 0.0 | 0.0 | 0.00 | 0.00 | 0.00 | 89 | 1015.2 |
| 20260901064304 | 77 | 239 | 1.0 | 2.0 | 0.00 | 0.00 | 0.00 | 89 | 1015.3 |
| 20260901063804 | 77 | 239 | 0.0 | 1.0 | 0.00 | 0.00 | 0.00 | 89 | 1015.3 |
| 20260901063304 | 77 | 239 | 1.0 | 2.0 | 0.00 | 0.00 | 0.00 | 89 | 1015.3 |
| 20260901062804 | 77 | 239 | 1.0 | 2.0 | 0.00 | 0.00 | 0.00 | 89 | 1015.3 |
| 20260901062309 | 77 | 239 | 0.0 | 1.0 | 0.00 | 0.00 | 0.00 | 89 | 1015.3 |
| 20260901061804 | 77 | 239 | 0.0 | 1.0 | 0.00 | 0.00 | 0.00 | 88 | 1015.4 |
| 20260901061304 | 77 | 239 | 0.0 | 1.0 | 0.00 | 0.00 | 0.00 | 88 | 1015.4 |
| 20260901060804 | 77 | 239 | 0.0 | 2.0 | 0.00 | 0.00 | 0.00 | 88 | 1015.4 |
| 20260901060305 | 77 | 239 | 0.0 | 2.0 | 0.00 | 0.00 | 0.00 | 88 | 1015.4 |
| 20260901055306 | 77 | 239 | 1.0 | 2.0 | 0.00 | 0.00 | 0.00 | 88 | 1015.4 |
| 20260901054804 | 77 | 239 | 0.0 | 2.0 | 0.00 | 0.00 | 0.00 | 88 | 1015.3 |
| 20260901054304 | 77 | 239 | 1.0 | 3.0 | 0.00 | 0.00 | 0.00 | 88 | 1015.3 |
| 20260901053804 | 77 | 239 | 1.0 | 3.0 | 0.00 | 0.00 | 0.00 | 88 | 1015.5 |
| 20260901053304 | 77 | 243 | 1.0 | 3.0 | 0.00 | 0.00 | 0.00 | 87 | 1015.5 |
| 20260901052804 | 77 | 225 | 1.0 | 3.0 | 0.00 | 0.00 | 0.00 | 87 | 1015.6 |
| 20260901052307 | 77 | 299 | 1.0 | 2.0 | 0.00 | 0.00 | 0.00 | 87 | 1015.6 |
| 20260901051804 | 77 | 299 | 1.0 | 2.0 | 0.00 | 0.00 | 0.00 | 87 | 1015.7 |
| 20260901051304 | 77 | 299 | 0.0 | 2.0 | 0.00 | 0.00 | 0.00 | 86 | 1015.6 |
| 20260901050804 | 77 | 299 | 1.0 | 3.0 | 0.00 | 0.00 | 0.00 | 86 | 1015.7 |
| 20260901050304 | 77 | 299 | 0.0 | 3.0 | 0.00 | 0.00 | 0.00 | 86 | 1015.8 |
| 20260901044804 | 77 | 299 | 0.0 | 0.0 | 0.00 | 0.00 | 0.00 | 86 | 1016.0 |
| 20260901044304 | 77 | 299 | 0.0 | 0.0 | 0.00 | 0.00 | 0.00 | 86 | 1016.0 |
| 20260901043804 | 77 | 299 | 0.0 | 0.0 | 0.00 | 0.00 | 0.00 | 86 | 1016.0 |
| 20260901043304 | 77 | 299 | 0.0 | 0.0 | 0.00 | 0.00 | 0.00 | 86 | 1016.0 |
| 20260901042804 | 77 | 299 | 0.0 | 0.0 | 0.00 | 0.00 | 0.00 | 86 | 1016.1 |
| 20260901042306 | 77 | 299 | 0.0 | 0.0 | 0.00 | 0.00 | 0.00 | 86 | 1016.2 |
| 20260901041804 | 77 | 299 | 0.0 | 1.0 | 0.00 | 0.00 | 0.00 | 86 | 1016.3 |
| 20260901041304 | 77 | 299 | 0.0 | 2.0 | 0.00 | 0.00 | 0.00 | 86 | 1016.2 |
| 20260901040304 | 77 | 299 | 0.0 | 1.0 | 0.00 | 0.00 | 0.00 | 85 | 1016.2 |
| 20260901035804 | 77 | 299 | 1.0 | 2.0 | 0.00 | 0.00 | 0.00 | 85 | 1016.2 |
| 20260901035306 | 77 | 299 | 1.0 | 2.0 | 0.00 | 0.00 | 0.00 | 85 | 1016.1 |
| 20260901034804 | 77 | 299 | 0.0 | 2.0 | 0.00 | 0.00 | 0.00 | 85 | 1016.1 |
| 20260901034304 | 77 | 299 | 1.0 | 3.0 | 0.00 | 0.00 | 0.00 | 85 | 1016.2 |
| 20260901033304 | 77 | 309 | 2.0 | 3.0 | 0.00 | 0.00 | 0.00 | 85 | 1016.3 |
| 20260901032804 | 77 | 212 | 1.0 | 3.0 | 0.00 | 0.00 | 0.00 | 85 | 1016.4 |
| 20260901032306 | 77 | 212 | 2.0 | 3.0 | 0.00 | 0.00 | 0.00 | 85 | 1016.4 |
| 20260901031804 | 77 | 212 | 1.0 | 3.0 | 0.00 | 0.00 | 0.00 | 85 | 1016.4 |